Regional Weather Roundup
Issued by NWS

Home | Current Version | Previous Version | Graphics & Text | Print | Product List | Glossary On
Versions: 1 2 3 4 5 6 7 8 9 10 11 12 13 14 15 16 17 18 19 20 21 22 23 24 25 26 27 28 29 30 31 32 33 34 35 36 37 38 39 40 41 42 43 44 45 46 47 48 49 50
000
ASUS43 KIND 250709
RWRIN

WEATHER ROUNDUP FOR INDIANA
NATIONAL WEATHER SERVICE INDIANAPOLIS IN
300 AM EDT MON JUL 25 2016

NOTE: "FAIR" INDICATES FEW OR NO CLOUDS BELOW 12,000 FEET WITH NO
SIGNIFICANT WEATHER AND/OR OBSTRUCTIONS TO VISIBILITY.

* - STATION DOES NOT REPORT WEATHER SUCH AS PRECIPITATION OR FOG.

+ - STATION NOT QUALITY CONTROLLED BY THE NATIONAL WEATHER SERVICE.
    USE DATA WITH CAUTION...ESPECIALLY DEWPOINT AND RELATIVE
    HUMIDITY OBSERVATIONS.

INZ001>003-010>013-019-020-250800-
NORTHWEST INDIANA

CITY           SKY/WX    TMP DP  RH WIND       PRES   REMARKS
GARY /AIRPORT/ CLOUDY    75  75 100 W6        29.97R
KNOX *+        CLOUDY    68  66  94 SW3       29.96F
LA PORTE +     LGT RAIN  72  72 100 SW9       29.96F
MICHIGAN CITY+ CLOUDY    70  68  94 S8        29.95F
MONTICELLO +   RAIN      70  65  84 SW7       29.98F
RENSSELAER +   LGT RAIN  70  68  94 CALM      29.97F
VALPARAISO     CLOUDY    71  67  87 SW6       29.96F

$$

LMZ046-743>745-250800-
SOUTHERN LAKE MICHIGAN

STATION/POSITION TIME  TEMP    WIND        PRES    WAVE
                       AIR SEA DIR/SP/G            HT
                 (UTC) (F)     (DEG/KT/KT) (MB)    (FT)
BURNS HARBOR     0600   74     200/ 16/ 22 1014.6R
MICHIGAN CITY    0600   74     160/ 11/ 13   N/A
5NW MICH CITY    0700   74 74  250/  6/ 10   N/A     2

$$

INZ004-005-014>016-021>024-250800-
NORTH CENTRAL INDIANA

CITY           SKY/WX    TMP DP  RH WIND       PRES   REMARKS
GOSHEN         CLOUDY    72  66  81 SW15      29.94F
LOGANSPORT +   CLOUDY    70  68  94 W10       29.98S
PERU/GRISSOM   CLOUDY    71  68  92 W9        29.96S
ROCHESTER +    LGT RAIN  72  72 100 CALM      29.95F
SOUTH BEND     CLOUDY    69  68  96 W13       29.94F
WARSAW +       CLOUDY    70  68  94 SW3       29.96R

$$

INZ006>009-017-018-025>027-250800-
NORTHEAST INDIANA

CITY           SKY/WX    TMP DP  RH WIND       PRES   REMARKS
ANGOLA *+      MOCLDY    72  64  78 W7        29.93F
AUBURN +       CLOUDY    73  64  73 W5        29.93F
FORT WAYNE     CLOUDY    72  66  81 W8        29.95F
HUNTINGTON +   CLOUDY   N/A N/A N/A W7        29.97R

$$

INZ028-029-035-036-043>045-051>053-250800-
WEST CENTRAL INDIANA

CITY           SKY/WX    TMP DP  RH WIND       PRES   REMARKS
CRAWFORDSVL +  CLOUDY    69  69 100 W3        30.03S
GREENCASTLE +  CLOUDY    72  70  94 CALM      30.02F
LAFAYETTE      RAIN      70  70 100 W6        29.99F FOG
TERRE HAUTE    CLOUDY    72  67  84 NW8       30.03F

$$

INZ030>032-037>040-046>048-054>057-064-065-250800-
CENTRAL INDIANA

CITY           SKY/WX    TMP DP  RH WIND       PRES   REMARKS
FRANKFORT +    CLOUDY    73  71  91 W6        30.03S
INDIANAPOLIS   CLOUDY    75  67  76 NW3       30.01F
-EAGLE CREEK   CLOUDY    76  67  73 NW6       30.00F
KOKOMO *+      CLOUDY    72  64  78 W10       29.98S
MARION +       CLOUDY    70  66  88 W3        29.99S
MT COMFORT *+  MOCLDY    73  70  88 W3        30.01S
SHELBYVILLE    MOCLDY    79  75  87 SW5       29.99S
ZIONSVILLE +   CLOUDY    71  67  88 W6        30.01F

$$

INZ033-034-041-042-049-050-058-059-250800-
EAST CENTRAL INDIANA

CITY           SKY/WX    TMP DP  RH WIND       PRES   REMARKS
MUNCIE         CLOUDY    77  70  79 W5        29.98F

$$

INZ060-061-067>069-081>083-085>088-250800-
SOUTHWEST INDIANA

CITY           SKY/WX    TMP DP  RH WIND       PRES   REMARKS
EVANSVILLE     CLEAR     80  76  87 CALM      29.99F
HUNTINGBURG *+ MOCLDY    75  73  94 N3        30.01S
WASHINGTON +   CLOUDY    78  78 100 MISG      30.02R

$$

INZ062-063-066-070>080-084-089>092-250800-
SOUTH CENTRAL AND SOUTHEAST INDIANA

CITY           SKY/WX    TMP DP  RH WIND       PRES   REMARKS
BLOOMINGTON    CLOUDY    79  74  84 VRB5      30.02F
MADISON *+     CLEAR     77  73  88 CALM      30.04S

$$





USA.gov is the U.S. government's official web portal to all federal, state and local government web resources and services.